CW4185 Weather Reports


Display with metric or nautical units.
time (UTC)temp
F
wind
direction
speed
MPH
gust
MPH
rain 1hr
in
rain 24hr
in
rain mn
in
humidity
%
barometer
mb
20260906194646 91 290 6.0 8.0 0.00 0.00 0.00 60 1011.2
20260906194147 92 268 4.0 8.0 0.00 0.00 0.00 58 1011.5
20260906193646 91 309 7.0 7.0 0.00 0.00 0.00 60 1011.5
20260906193146 91 300 5.0 8.0 0.00 0.00 0.00 61 1011.5
20260906192646 90 354 1.0 7.0 0.00 0.00 0.00 62 1011.5
20260906192146 91 296 7.0 8.0 0.00 0.00 0.00 60 1011.9
20260906191646 91 344 3.0 6.0 0.00 0.00 0.00 60 1011.9
20260906191147 90 330 4.0 6.0 0.00 0.00 0.00 63 1011.5
20260906190646 91 299 8.0 10.0 0.00 0.00 0.00 61 1011.9
20260906190149 91 360 0.0 5.0 0.00 0.00 0.00 61 1011.5
20260906185646 91 344 3.0 9.0 0.00 0.00 0.00 63 1011.9
20260906185146 90 272 3.0 7.0 0.00 0.00 0.00 64 1011.9
20260906184214 91 348 5.0 6.0 0.00 0.00 0.00 63 1012.2
20260906183647 89 10 4.0 6.0 0.00 0.00 0.00 65 1012.2
20260906183147 89 333 5.0 9.0 0.00 0.00 0.00 65 1012.2
20260906182646 89 332 7.0 10.0 0.00 0.00 0.00 65 1012.2
20260906182146 89 288 4.0 7.0 0.00 0.00 0.00 65 1012.2
20260906181646 89 345 7.0 10.0 0.00 0.00 0.00 65 1012.5
20260906181146 90 188 1.0 6.0 0.00 0.00 0.00 63 1012.2
20260906180646 89 360 2.0 4.0 0.00 0.00 0.00 67 1012.5
20260906180147 88 336 3.0 6.0 0.00 0.00 0.00 67 1012.9
20260906175646 88 283 8.0 9.0 0.00 0.00 0.00 65 1012.5
20260906175146 89 266 5.0 12.0 0.00 0.00 0.00 65 1012.2
20260906174646 89 323 3.0 5.0 0.00 0.00 0.00 67 1012.9
20260906174146 89 314 5.0 9.0 0.00 0.00 0.00 69 1012.9
20260906173646 88 273 3.0 5.0 0.00 0.00 0.00 70 1012.5
20260906173146 88 221 5.0 7.0 0.00 0.00 0.00 69 1012.9
20260906172647 89 302 7.0 10.0 0.00 0.00 0.00 69 1012.9
20260906172146 88 240 2.0 4.0 0.00 0.00 0.00 70 1012.9
20260906171646 88 320 3.0 3.0 0.00 0.00 0.00 70 1012.9
20260906171148 88 267 6.0 9.0 0.00 0.00 0.00 71 1013.2
20260906170647 87 300 3.0 9.0 0.00 0.00 0.00 71 1012.9
20260906170146 87 290 5.0 8.0 0.00 0.00 0.00 72 1013.2
20260906165646 87 296 7.0 8.0 0.00 0.00 0.00 72 1012.9
20260906165147 87 331 4.0 7.0 0.00 0.00 0.00 73 1013.5
20260906164646 87 211 2.0 6.0 0.00 0.00 0.00 74 1013.5
20260906164146 86 313 2.0 7.0 0.00 0.00 0.00 74 1013.5
20260906163646 86 297 6.0 10.0 0.00 0.00 0.00 75 1013.5
20260906163146 86 210 5.0 7.0 0.00 0.00 0.00 75 1013.5
20260906162649 86 353 3.0 9.0 0.00 0.00 0.00 77 1013.5
20260906162146 86 272 5.0 8.0 0.00 0.00 0.00 77 1013.5
20260906161646 86 332 4.0 9.0 0.00 0.00 0.00 77 1013.5
20260906161147 85 246 6.0 8.0 0.00 0.00 0.00 78 1013.5
20260906160646 85 278 5.0 8.0 0.00 0.00 0.00 78 1013.5
20260906160146 85 239 3.0 7.0 0.00 0.00 0.00 78 1013.5
20260906155647 85 285 3.0 7.0 0.00 0.00 0.00 80 1013.5
20260906155146 85 239 3.0 7.0 0.00 0.00 0.00 79 1013.5
20260906154646 85 247 3.0 9.0 0.00 0.00 0.00 79 1013.2
20260906154146 85 276 2.0 4.0 0.00 0.00 0.00 79 1013.5
20260906153646 86 299 5.0 7.0 0.00 0.00 0.00 77 1013.5
20260906153146 85 12 4.0 6.0 0.00 0.00 0.00 80 1013.5
20260906152646 85 307 3.0 7.0 0.00 0.00 0.00 81 1013.5
20260906152146 85 290 6.0 6.0 0.00 0.00 0.00 81 1013.2
20260906151646 85 350 4.0 6.0 0.00 0.00 0.00 81 1013.5
20260906151146 84 307 5.0 8.0 0.00 0.00 0.00 81 1013.2
20260906150646 85 11 5.0 8.0 0.00 0.00 0.00 82 1013.2
20260906150146 85 327 2.0 5.0 0.00 0.00 0.00 82 1013.2
20260906145646 84 339 3.0 7.0 0.00 0.00 0.00 83 1012.9
20260906145146 84 327 7.0 8.0 0.00 0.00 0.00 83 1013.2
20260906144646 84 360 3.0 8.0 0.00 0.00 0.00 85 1012.9
20260906144146 84 15 5.0 7.0 0.00 0.00 0.00 84 1013.2
20260906143647 84 81 2.0 6.0 0.00 0.00 0.00 84 1012.9
20260906143146 83 332 3.0 6.0 0.00 0.00 0.00 86 1013.2
20260906142646 83 274 3.0 6.0 0.00 0.00 0.00 87 1013.2
20260906142146 83 287 3.0 6.0 0.00 0.00 0.00 88 1013.2
20260906141647 82 302 3.0 4.0 0.00 0.00 0.00 89 1013.2
20260906141147 82 269 0.0 5.0 0.00 0.00 0.00 88 1013.2
20260906140646 82 271 4.0 6.0 0.00 0.00 0.00 90 1013.5
20260906140147 82 280 5.0 7.0 0.00 0.00 0.00 89 1013.5
20260906135647 82 327 3.0 6.0 0.00 0.00 0.00 90 1013.5
20260906135146 81 291 4.0 7.0 0.00 0.00 0.00 91 1013.9
20260906134648 81 280 5.0 9.0 0.00 0.00 0.00 91 1013.5
20260906134146 81 320 3.0 7.0 0.00 0.00 0.00 91 1013.5
20260906133647 81 330 2.0 7.0 0.00 0.00 0.00 91 1013.5
20260906133146 81 309 6.0 8.0 0.00 0.00 0.00 91 1013.9
20260906132646 80 298 2.0 5.0 0.00 0.00 0.00 91 1013.5
20260906132146 80 287 2.0 6.0 0.00 0.00 0.00 91 1013.5
20260906131646 80 314 3.0 7.0 0.00 0.00 0.00 91 1013.2
20260906131147 80 283 2.0 5.0 0.00 0.00 0.00 91 1013.5
20260906130646 80 276 1.0 3.0 0.00 0.00 0.00 92 1013.5
20260906130146 80 283 3.0 4.0 0.00 0.00 0.00 92 1013.5
20260906125646 80 289 2.0 3.0 0.00 0.00 0.00 93 1013.2
20260906125146 79 280 3.0 5.0 0.00 0.00 0.00 93 1013.2
20260906124646 79 296 0.0 4.0 0.00 0.00 0.00 93 1013.2
20260906124146 79 167 0.0 3.0 0.00 0.00 0.00 94 1012.9
20260906123646 78 110 0.0 3.0 0.00 0.00 0.00 95 1013.2
20260906123147 78 136 1.0 3.0 0.00 0.00 0.00 96 1012.9
20260906122646 77 212 0.0 2.0 0.00 0.00 0.00 97 1012.9
20260906122146 77 231 1.0 3.0 0.00 0.00 0.00 97 1012.9
20260906121647 77 187 0.0 2.0 0.00 0.00 0.00 98 1012.9
20260906121147 77 328 0.0 2.0 0.00 0.00 0.00 98 1012.9
20260906120646 76 324 1.0 3.0 0.00 0.00 0.00 98 1012.9
20260906120146 76 162 2.0 2.0 0.00 0.00 0.00 98 1012.5
20260906115646 76 210 0.0 3.0 0.00 0.00 0.00 98 1012.5
20260906115147 76 184 0.0 3.0 0.00 0.00 0.00 98 1012.2
20260906114646 76 276 1.0 3.0 0.00 0.00 0.00 98 1012.5
20260906114146 77 303 2.0 3.0 0.02 0.00 0.00 98 1012.2
20260906113646 77 305 2.0 3.0 0.02 0.00 0.00 98 1012.2
20260906113146 77 298 3.0 4.0 0.00 0.00 0.00 98 1012.2
20260906112646 77 278 3.0 4.0 0.00 0.00 0.00 98 1012.2
20260906112146 77 355 2.0 4.0 0.00 0.00 0.00 98 1012.5
20260906111646 77 276 2.0 3.0 0.00 0.00 0.00 98 1012.5
20260906111146 77 298 2.0 3.0 0.00 0.00 0.00 98 1012.5
20260906110646 77 302 2.0 4.0 0.00 0.00 0.00 98 1012.2
20260906110146 77 292 1.0 5.0 0.00 0.00 0.00 97 1011.9
20260906105646 77 297 3.0 4.0 0.00 0.00 0.00 98 1011.9
20260906105146 77 296 3.0 4.0 0.00 0.00 0.00 98 1011.9
20260906104646 77 138 0.0 4.0 0.00 0.00 0.00 98 1012.2
20260906104147 77 237 1.0 3.0 0.00 0.00 0.00 98 1011.9
20260906103646 77 302 1.0 3.0 0.00 0.00 0.00 98 1011.9
20260906103146 77 220 2.0 4.0 0.00 0.00 0.00 98 1011.9
20260906102648 77 253 1.0 6.0 0.00 0.00 0.00 99 1011.9
20260906102146 77 223 2.0 3.0 0.00 0.00 0.00 99 1011.9
20260906101648 77 161 0.0 4.0 0.00 0.00 0.00 99 1011.5
20260906101146 77 96 0.0 4.0 0.00 0.00 0.00 99 1011.9
20260906100646 77 269 1.0 4.0 0.00 0.00 0.00 99 1011.9
20260906100146 77 340 1.0 3.0 0.00 0.00 0.00 99 1011.9
20260906095646 77 129 2.0 5.0 0.00 0.00 0.00 99 1011.5
20260906095147 77 146 0.0 3.0 0.00 0.00 0.00 99 1011.5
20260906094647 77 169 1.0 3.0 0.00 0.00 0.00 99 1011.5
20260906094147 77 163 4.0 5.0 0.00 0.00 0.00 99 1011.5
20260906093646 77 254 1.0 3.0 0.00 0.00 0.00 99 1011.5
20260906093146 77 267 2.0 4.0 0.00 0.00 0.00 99 1011.5
20260906092646 77 250 2.0 3.0 0.00 0.00 0.00 99 1011.9
20260906092146 77 262 2.0 5.0 0.00 0.00 0.00 99 1011.9
20260906091646 77 19 0.0 4.0 0.00 0.00 0.00 99 1011.9
20260906091147 77 157 3.0 3.0 0.00 0.00 0.00 99 1011.9
20260906090646 77 213 0.0 3.0 0.00 0.00 0.00 99 1011.5
20260906090146 77 194 3.0 4.0 0.00 0.00 0.00 99 1011.9
20260906085646 77 211 2.0 2.0 0.00 0.00 0.00 99 1011.9
20260906085147 77 178 0.0 2.0 0.00 0.00 0.00 99 1011.9
20260906084646 77 218 1.0 2.0 0.00 0.00 0.00 99 1011.9
20260906084146 77 342 2.0 2.0 0.00 0.00 0.00 99 1011.9
20260906083646 77 315 0.0 1.0 0.00 0.00 0.00 98 1011.9
20260906083146 77 333 0.0 2.0 0.00 0.00 0.00 98 1011.5
20260906082646 77 336 0.0 0.0 0.00 0.00 0.00 98 1011.9
20260906082147 77 343 0.0 1.0 0.00 0.00 0.00 98 1011.5
20260906081646 77 244 0.0 1.0 0.00 0.00 0.00 98 1011.5
20260906081146 77 315 0.0 2.0 0.00 0.00 0.00 98 1011.5
20260906080646 77 4 0.0 2.0 0.00 0.00 0.00 98 1011.5
20260906080146 77 258 0.0 1.0 0.00 0.00 0.00 98 1011.5
20260906075646 77 333 0.0 2.0 0.00 0.00 0.00 98 1011.5
20260906075147 77 255 1.0 2.0 0.00 0.00 0.00 98 1011.5
20260906074646 77 315 0.0 0.0 0.00 0.00 0.00 98 1011.5
20260906074146 77 343 0.0 2.0 0.00 0.00 0.00 98 1011.5
20260906073646 77 214 1.0 3.0 0.00 0.00 0.00 98 1011.5
20260906073146 77 211 2.0 3.0 0.00 0.00 0.00 98 1011.5
20260906072647 77 237 3.0 3.0 0.00 0.00 0.00 98 1011.5
20260906072146 77 235 1.0 3.0 0.00 0.00 0.00 98 1011.5
20260906071647 77 207 2.0 3.0 0.00 0.00 0.00 98 1011.5
20260906071146 77 215 1.0 3.0 0.00 0.00 0.00 98 1011.5
20260906070646 77 233 1.0 3.0 0.00 0.00 0.00 98 1011.5
20260906070146 77 196 0.0 2.0 0.00 0.00 0.00 98 1011.9
20260906065648 77 240 3.0 3.0 0.00 0.00 0.00 98 1011.9
20260906065146 77 224 0.0 3.0 0.00 0.00 0.00 98 1011.5
20260906064646 77 216 1.0 3.0 0.00 0.00 0.00 98 1011.9
20260906064146 77 207 2.0 3.0 0.00 0.00 0.00 98 1011.9
20260906063649 77 189 2.0 3.0 0.00 0.00 0.00 98 1011.5
20260906063146 77 187 1.0 2.0 0.00 0.00 0.00 98 1011.9
20260906062646 77 232 1.0 2.0 0.00 0.00 0.00 98 1011.9
20260906062146 77 210 0.0 2.0 0.00 0.00 0.00 98 1011.9
20260906061646 77 221 0.0 1.0 0.00 0.00 0.00 97 1011.5
20260906061147 77 180 0.0 1.0 0.00 0.00 0.00 98 1011.9
20260906060647 77 213 2.0 2.0 0.00 0.00 0.00 98 1011.9
20260906060147 77 235 1.0 3.0 0.00 0.00 0.00 98 1011.9
20260906055646 77 221 2.0 3.0 0.00 0.00 0.00 98 1011.5
20260906055146 77 213 4.0 5.0 0.00 0.00 0.00 98 1011.9
20260906054646 77 196 1.0 3.0 0.00 0.00 0.00 98 1011.9
20260906054146 77 283 2.0 3.0 0.00 0.00 0.00 98 1011.9
20260906053646 77 228 2.0 5.0 0.00 0.00 0.00 98 1011.9
20260906053146 77 231 2.0 4.0 0.00 0.00 0.00 97 1011.9
20260906052646 77 215 3.0 5.0 0.00 0.00 0.00 97 1011.9
20260906052146 77 201 3.0 5.0 0.00 0.00 0.00 97 1011.9
20260906051647 77 185 3.0 5.0 0.00 0.00 0.00 97 1011.5
20260906051146 77 225 4.0 5.0 0.00 0.00 0.00 97 1011.5
20260906050646 77 213 4.0 4.0 0.00 0.00 0.00 97 1011.5
20260906050147 77 194 2.0 4.0 0.00 0.00 0.00 97 1011.9
20260906045646 77 209 2.0 3.0 0.00 0.00 1.16 97 1011.5
20260906045146 77 252 2.0 2.0 0.00 0.00 1.16 97 1011.5
20260906044646 77 205 1.0 3.0 0.00 0.00 1.16 97 1011.5
20260906044146 77 180 1.0 3.0 0.00 0.00 1.16 97 1011.5
20260906043646 77 197 2.0 4.0 0.00 0.00 1.16 97 1011.5
20260906043146 77 192 3.0 4.0 0.00 0.00 1.16 97 1011.5
20260906042646 78 183 3.0 4.0 0.00 0.00 1.16 96 1011.5
20260906042146 78 171 3.0 4.0 0.00 0.00 1.16 96 1011.9
20260906041646 78 184 3.0 3.0 0.00 0.00 1.16 96 1011.9
20260906041146 78 175 2.0 3.0 0.00 0.00 1.16 96 1011.5
20260906040646 78 168 3.0 4.0 0.00 0.00 1.16 95 1011.5
20260906040146 78 165 1.0 3.0 0.00 0.00 1.16 96 1011.5
20260906035646 78 141 2.0 3.0 0.00 0.00 1.16 96 1011.5
20260906035147 78 129 0.0 0.0 0.00 0.00 1.16 95 1011.5
20260906034646 78 160 1.0 3.0 0.00 0.00 1.16 95 1011.5
20260906034146 78 152 2.0 2.0 0.00 0.00 1.16 96 1011.5
20260906033646 78 132 1.0 3.0 0.00 0.00 1.16 96 1011.5
20260906033146 78 190 2.0 2.0 0.00 0.00 1.16 95 1011.5
20260906032646 78 239 2.0 4.0 0.00 0.00 1.16 95 1011.5
20260906032147 78 194 3.0 3.0 0.00 0.00 1.16 95 1011.5
20260906031646 78 183 3.0 3.0 0.00 0.00 1.16 95 1011.9
20260906031146 78 154 1.0 2.0 0.00 0.00 1.16 95 1011.9
20260906030646 78 224 0.0 3.0 0.00 0.00 1.16 95 1011.5
20260906030146 78 214 2.0 3.0 0.00 0.00 1.16 95 1011.5
20260906025646 78 192 2.0 3.0 0.00 0.00 1.16 95 1011.5
20260906025146 78 190 1.0 2.0 0.02 0.00 1.16 95 1011.5
20260906024646 78 163 2.0 3.0 0.02 0.00 1.16 95 1011.9
20260906024146 78 103 0.0 2.0 0.00 0.00 1.15 95 1011.5
20260906023646 78 65 0.0 1.0 0.00 0.00 1.15 95 1011.5
20260906023146 78 129 1.0 2.0 0.00 0.00 1.15 95 1011.5
20260906022646 78 193 2.0 2.0 0.00 0.00 1.15 95 1011.5
20260906022146 78 267 2.0 2.0 0.00 0.00 1.15 95 1011.5
20260906021646 78 282 1.0 3.0 0.00 0.00 1.15 94 1011.5
20260906021149 79 315 0.0 3.0 0.00 0.00 1.15 94 1011.5
20260906020647 79 288 2.0 2.0 0.00 0.00 1.15 94 1011.5
20260906020146 79 236 2.0 3.0 0.00 0.00 1.15 93 1011.9
20260906015647 79 313 1.0 3.0 0.00 0.00 1.15 94 1011.5
20260906015146 79 345 1.0 3.0 0.00 0.00 1.15 93 1011.2
20260906014646 79 34 0.0 2.0 0.00 0.00 1.15 92 1011.2
20260906014147 79 44 0.0 2.0 0.00 0.00 1.15 92 1011.5
20260906013646 79 82 2.0 3.0 0.00 0.00 1.15 93 1011.2
20260906013146 78 59 0.0 2.0 0.00 0.00 1.15 93 1011.2
20260906012646 78 164 0.0 0.0 0.00 0.00 1.15 92 1011.2
20260906012147 78 129 0.0 0.0 0.00 0.00 1.15 93 1011.2
20260906011647 78 148 2.0 3.0 0.00 0.00 1.15 93 1011.2
20260906011146 78 210 0.0 0.0 0.00 0.00 1.15 92 1011.2
20260906010647 78 135 0.0 0.0 0.00 0.00 1.15 92 1011.2
20260906010147 78 135 0.0 0.0 0.00 0.00 1.15 91 1011.2
20260906005646 78 143 2.0 2.0 0.00 0.00 1.15 91 1011.2
20260906005147 78 209 0.0 2.0 0.00 0.00 1.15 91 1011.5
20260906004646 78 284 1.0 3.0 0.00 0.00 1.15 91 1011.2
20260906004146 78 234 2.0 3.0 0.00 0.00 1.15 91 1011.2
20260906003646 79 232 2.0 2.0 0.00 0.00 1.15 91 1011.2
20260906003146 78 231 3.0 4.0 0.00 0.00 1.15 91 1011.5
20260906002646 78 230 2.0 5.0 0.00 0.00 1.15 92 1011.2
20260906002146 79 234 5.0 5.0 0.00 0.00 1.15 93 1011.2
20260906001646 79 228 4.0 4.0 0.00 0.00 1.15 93 1011.5
20260906001146 79 207 2.0 3.0 0.00 0.00 1.15 94 1011.5
20260906000646 79 228 2.0 4.0 0.00 0.00 1.15 94 1011.5
20260906000147 79 189 0.0 2.0 0.00 0.00 1.15 95 1011.5
20260905235646 79 173 2.0 2.0 0.00 0.00 1.15 95 1011.5
20260905235147 79 228 0.0 3.0 0.00 0.00 1.15 95 1011.5
20260905234647 79 275 2.0 4.0 0.00 0.00 1.15 94 1011.5
20260905234146 79 252 1.0 3.0 0.00 0.00 1.15 94 1011.2
20260905233646 78 226 2.0 3.0 0.00 0.00 1.15 94 1011.2
20260905233146 78 174 0.0 3.0 0.00 0.00 1.15 93 1011.5
20260905232646 78 192 2.0 3.0 0.00 0.00 1.15 93 1011.9
20260905232146 78 223 3.0 4.0 0.02 0.00 1.15 92 1011.9
20260905231646 78 243 3.0 4.0 0.05 0.00 1.15 91 1011.5
20260905231147 78 223 2.0 3.0 0.05 0.00 1.15 92 1011.5
20260905230646 78 47 0.0 4.0 0.05 0.00 1.15 92 1011.9
20260905230146 78 27 1.0 2.0 0.05 0.00 1.14 92 1011.5
20260905225647 78 71 2.0 4.0 0.17 0.00 1.14 93 1011.9
20260905225146 78 68 0.0 4.0 0.35 0.00 1.13 93 1012.2
20260905224646 79 13 5.0 6.0 0.40 0.00 1.11 94 1012.2
20260905224147 80 16 3.0 6.0 0.24 0.00 1.07 93 1012.2
20260905223646 80 63 0.0 9.0 0.07 0.00 1.04 92 1012.2
20260905223146 82 66 13.0 13.0 0.00 0.00 1.03 87 1012.2
20260905222646 82 341 3.0 5.0 0.00 0.00 1.03 86 1011.9
20260905222146 83 7 3.0 4.0 0.00 0.00 1.03 85 1012.2
20260905221646 83 335 3.0 5.0 0.00 0.00 1.03 83 1012.2
20260905221146 83 284 5.0 9.0 0.00 0.00 1.03 82 1011.9
20260905220646 83 237 8.0 16.0 0.00 0.00 1.03 83 1011.9
20260905220148 83 224 12.0 13.0 0.00 0.00 1.03 83 1011.9
20260905215647 84 216 11.0 18.0 0.00 0.00 1.03 82 1011.5
20260905215146 88 218 13.0 20.0 0.00 0.00 1.03 73 1011.5
20260905214646 89 217 9.0 11.0 0.00 0.00 1.03 67 1011.5
20260905214146 88 197 9.0 9.0 0.00 0.00 1.03 67 1011.2
20260905213646 89 177 10.0 12.0 0.00 0.00 1.03 67 1011.5
20260905213148 89 180 9.0 13.0 0.00 0.00 1.03 68 1011.2
20260905212646 90 198 5.0 11.0 0.00 0.00 1.03 66 1011.2
20260905212146 90 189 7.0 10.0 0.00 0.00 1.03 67 1011.2
20260905211646 90 179 6.0 10.0 0.00 0.00 1.03 69 1011.2
20260905211148 89 172 6.0 9.0 0.00 0.00 1.03 69 1011.2
20260905210646 89 138 6.0 6.0 0.00 0.00 1.03 65 1011.2
20260905210146 89 163 3.0 8.0 0.00 0.00 1.03 66 1011.2
20260905205646 89 181 7.0 9.0 0.00 0.00 1.03 66 1011.2
20260905205146 90 177 4.0 8.0 0.00 0.00 1.03 65 1011.2
20260905204646 92 145 3.0 5.0 0.00 0.00 1.03 62 1011.2
20260905204147 91 251 1.0 4.0 0.00 0.00 1.03 64 1011.2
20260905203646 90 127 3.0 6.0 0.00 0.00 1.03 66 1011.2
20260905203146 90 168 5.0 9.0 0.00 0.00 1.03 66 1011.2
20260905202646 90 15 1.0 5.0 0.00 0.00 1.03 64 1011.2
20260905202146 90 177 5.0 6.0 0.00 0.00 1.03 67 1011.2
20260905201646 90 79 3.0 9.0 0.00 0.00 1.03 65 1011.5
20260905201146 91 160 4.0 8.0 0.00 0.00 1.03 66 1011.2
20260905200646 91 167 5.0 7.0 0.00 0.00 1.03 66 1011.5
20260905200147 89 59 3.0 4.0 0.00 0.00 1.03 69 1011.2
20260905195646 89 173 5.0 7.0 0.00 0.00 1.03 69 1011.2
20260905195147 90 181 4.0 6.0 0.00 0.00 1.03 67 1011.5